East Quogue, NY

9:53 AM EST on February 25, 2017 (GMT -0500)
The Gabreski

Weather History for KFOK - September, 2013

Change the Weather History Date:

Tuesday, September 10, 2013

  Actual Average Record
Temperature  
Mean Temperature 70 °F -  
Max Temperature 75 °F 73 °F 82 °F (1996)
Min Temperature 64 °F 54 °F 43 °F (2003)
Cooling Degree Days 4    
Growing Degree Days 20 (Base 50)    
Moisture  
Dew Point 65 °F    
Average Humidity 85    
Maximum Humidity 97    
Minimum Humidity 70    
Precipitation  
Precipitation 0.09 in - - ()
Sea Level Pressure  
Sea Level Pressure 30.15 in    
Wind  
Wind Speed 8 mph (SSW)    
Max Wind Speed 15 mph    
Max Gust Speed 32 mph    
Visibility 9 miles    
Events Rain    
Averages and records for this station are not official NWS values.
T = Trace of Precipitation, MM = Missing Value Source: NWS Daily Summary

Daily Weather History Graph

Daily Weather History Graph

Search for Another Location

Airport or City:

Trip Planner

Search our weather history database for the weather conditions in past years. The results will help you decide how hot, cold, wet, or windy it might be!

Date:

Astronomy

Sep. 10, 2013 Rise Set
Actual Time 6:26 AM EDT 7:07 PM EDT
Civil Twilight 5:58 AM EDT 7:35 PM EDT
Nautical Twilight 5:25 AM EDT 8:07 PM EDT
Astronomical Twilight 4:52 AM EDT 8:41 PM EDT
Moon 11:51 AM EDT (9/10) 10:06 PM EDT (9/10)
Length of Visible Light 13h 36m
Length of Day
12h 41m
Waxing Crescent, 28% of the Moon is Illuminated
Sep 10
Waxing Crescent
Sep 12
First Quarter
Sep 19
Full
Sep 26
Last Quarter
Oct 4
New

Hourly Weather History & Observations

Time (EDT) Temp. Dew Point Humidity Pressure Visibility Wind Dir Wind Speed Gust Speed Precip Events Conditions
12:53 AM 64.0 °F 55.0 °F 73% 30.19 in 10.0 mi South 5.8 mph - N/A   Clear
1:53 AM 64.9 °F 57.0 °F 75% 30.19 in 10.0 mi South 5.8 mph - N/A   Mostly Cloudy
2:53 AM 66.9 °F 57.0 °F 70% 30.19 in 10.0 mi South 4.6 mph - N/A   Overcast
3:53 AM 66.9 °F 57.0 °F 70% 30.18 in 10.0 mi South 8.1 mph - N/A   Overcast
4:53 AM 66.9 °F 57.9 °F 73% 30.17 in 10.0 mi SSW 5.8 mph - N/A   Overcast
5:53 AM 68.0 °F 59.0 °F 73% 30.18 in 10.0 mi SSW 5.8 mph - N/A   Overcast
6:53 AM 66.9 °F 61.0 °F 81% 30.19 in 9.0 mi SSW 5.8 mph - 0.00 in Rain Light Rain
7:27 AM 64.4 °F 62.6 °F 94% 30.19 in 2.0 mi South 5.8 mph - 0.08 in Rain Heavy Rain
7:37 AM 66.2 °F 62.6 °F 88% 30.19 in 6.0 mi South 5.8 mph - 0.09 in Rain Light Rain
7:53 AM 66.0 °F 63.0 °F 90% 30.18 in 9.0 mi South 5.8 mph - 0.09 in Rain Light Rain
8:09 AM 66.2 °F 64.4 °F 94% 30.18 in 10.0 mi South 6.9 mph - 0.00 in   Overcast
8:53 AM 66.9 °F 64.9 °F 93% 30.19 in 10.0 mi South 5.8 mph - 0.00 in   Overcast
9:53 AM 69.1 °F 64.9 °F 87% 30.20 in 10.0 mi SSW 8.1 mph - N/A   Overcast
10:53 AM 71.1 °F 66.0 °F 84% 30.19 in 10.0 mi SSW 9.2 mph - N/A   Overcast
11:53 AM 72.0 °F 66.9 °F 84% 30.19 in 10.0 mi SW 9.2 mph 19.6 mph N/A   Overcast
12:10 PM 73.4 °F 66.2 °F 78% 30.18 in 10.0 mi SSW 10.4 mph 18.4 mph N/A   Overcast
12:53 PM 73.0 °F 68.0 °F 84% 30.17 in 10.0 mi SW 9.2 mph 17.3 mph N/A   Overcast
1:53 PM 73.9 °F 68.0 °F 82% 30.10 in 10.0 mi SSW 12.7 mph 25.3 mph N/A   Mostly Cloudy
2:13 PM 73.4 °F 68.0 °F 83% 30.08 in 10.0 mi SSW 12.7 mph 32.2 mph N/A   Scattered Clouds
2:53 PM 75.0 °F 69.1 °F 82% 30.12 in 10.0 mi SW 15.0 mph 24.2 mph N/A   Partly Cloudy
3:05 PM 73.4 °F 66.2 °F 78% 30.13 in 10.0 mi SW 15.0 mph 25.3 mph N/A   Mostly Cloudy
3:48 PM 73.4 °F 68.0 °F 83% 30.11 in 10.0 mi SW 12.7 mph 28.8 mph N/A   Partly Cloudy
3:53 PM 73.0 °F 68.0 °F 84% 30.12 in 10.0 mi SW 11.5 mph 19.6 mph N/A   Partly Cloudy
4:53 PM 73.0 °F 68.0 °F 84% 30.11 in 10.0 mi SW 13.8 mph 20.7 mph N/A   Clear
5:53 PM 73.0 °F 68.0 °F 84% 30.11 in 10.0 mi SW 9.2 mph 18.4 mph N/A   Partly Cloudy
6:33 PM 71.6 °F 68.0 °F 88% 30.11 in 10.0 mi SW 8.1 mph - N/A   Scattered Clouds
6:53 PM 71.1 °F 68.0 °F 90% 30.12 in 8.0 mi SW 6.9 mph - N/A   Partly Cloudy
7:29 PM 71.6 °F 68.0 °F 88% 30.12 in 7.0 mi SSW 5.8 mph - N/A   Mostly Cloudy
7:53 PM 71.1 °F 68.0 °F 90% 30.12 in 7.0 mi SSW 8.1 mph - N/A   Scattered Clouds
8:53 PM 70.0 °F 69.1 °F 97% 30.13 in 6.0 mi SSW 8.1 mph - N/A   Partly Cloudy
9:53 PM 71.1 °F 69.1 °F 93% 30.13 in 6.0 mi SW 8.1 mph - N/A   Clear
10:09 PM 71.6 °F 69.8 °F 94% 30.13 in 6.0 mi SW 6.9 mph - N/A   Partly Cloudy
10:36 PM 71.6 °F 69.8 °F 94% 30.14 in 6.0 mi SW 8.1 mph - N/A   Mostly Cloudy
10:45 PM 71.6 °F 69.8 °F 94% 30.13 in 6.0 mi SW 9.2 mph - N/A   Scattered Clouds
10:53 PM 71.1 °F 69.1 °F 93% 30.13 in 6.0 mi SW 10.4 mph - N/A   Scattered Clouds
11:53 PM 71.1 °F 69.1 °F 93% 30.14 in 6.0 mi SW 9.2 mph - N/A   Clear